Weather History for Fredericksburg, VA

Change the Weather History Date:

Tuesday, January 8, 2013

  Actual Average (KNYG) Record (KNYG)
Temperature  
Mean Temperature 39 °F -  
Max Temperature 54 °F 42 °F 71 °F (2008)
Min Temperature 24 °F 27 °F 10 °F (2014)
Degree Days  
Heating Degree Days 26    
Moisture  
Dew Point 31 °F    
Average Humidity 77    
Maximum Humidity 99    
Minimum Humidity 46    
Precipitation  
Precipitation 0.00 in - - ()
Sea Level Pressure  
Sea Level Pressure 30.40 in    
Wind  
Wind Speed 7 mph (SSW)    
Max Wind Speed 13 mph    
Max Gust Speed 20 mph    
Visibility 10 miles    
Events      
Averages and records for this station are not official NWS values.
T = Trace of Precipitation, MM = Missing Value Source: NWS Daily Summary

Daily Weather History Graph

Daily Weather History Graph

Search for Another Location

Airport:

Trip Planner

Search our weather history database for the weather conditions in past years. The results will help you decide how hot, cold, wet, or windy it might be!

Date:

Astronomy

Jan. 08, 2013 Rise Set
Actual Time 7:26 AM EST 5:06 PM EST
Civil Twilight 6:57 AM EST 5:36 PM EST
Nautical Twilight 6:24 AM EST 6:08 PM EST
Astronomical Twilight 5:52 AM EST 6:40 PM EST
Moon 3:57 AM EST (1/8) 2:07 PM EST (1/8)
Length of Visible Light 10h 38m
Length of Day
9h 40m
Waning Crescent, 14% of the Moon is Illuminated
Jan 8
Waning Crescent
Jan 11
New
Jan 18
First Quarter
Jan 26
Full
Feb 3
Last Quarter

Hourly Weather History & Observations

Time (EST) Temp. Windchill Dew Point Humidity Pressure Visibility Wind Dir Wind Speed Gust Speed Precip Events Conditions
12:15 AM 29.3 °F - 26.8 °F 90% 30.42 in 10.0 mi North - - N/A   Clear
12:35 AM 28.8 °F - 26.6 °F 92% 30.40 in 10.0 mi North - - N/A   Clear
12:55 AM 28.4 °F - 26.4 °F 92% 30.40 in 10.0 mi North - - N/A   Clear
1:35 AM 28.0 °F - 26.2 °F 93% 30.42 in 10.0 mi North - - N/A   Clear
1:55 AM 28.4 °F - 27.5 °F 96% 30.42 in 10.0 mi North - - N/A   Clear
2:15 AM 28.2 °F - 26.6 °F 94% 30.42 in 10.0 mi North - - N/A   Clear
2:35 AM 28.2 °F - 26.2 °F 92% 30.42 in 10.0 mi North - - N/A   Clear
2:55 AM 27.5 °F - 25.7 °F 93% 30.42 in 10.0 mi North - - N/A   Clear
3:15 AM 27.0 °F - 23.9 °F 88% 30.40 in 10.0 mi North - - N/A   Clear
3:35 AM 27.5 °F - 25.2 °F 91% 30.40 in 10.0 mi North - - N/A   Clear
3:55 AM 27.3 °F - 26.2 °F 96% 30.40 in 7.0 mi North - - N/A   Clear
4:15 AM 27.5 °F - 26.1 °F 94% 30.40 in 10.0 mi North - - N/A   Clear
4:35 AM 27.5 °F - 26.4 °F 96% 30.40 in 10.0 mi North - - N/A   Clear
4:55 AM 27.3 °F - 25.9 °F 94% 30.40 in 7.0 mi North - - N/A   Clear
5:15 AM 27.0 °F - 26.2 °F 97% 30.41 in 7.0 mi North - - N/A   Clear
5:35 AM 26.6 °F - 24.6 °F 92% 30.42 in 10.0 mi North - - N/A   Clear
5:55 AM 26.6 °F - 25.2 °F 94% 30.42 in 10.0 mi North - - N/A   Clear
6:15 AM 27.3 °F - 25.9 °F 94% 30.42 in 10.0 mi North - - N/A   Clear
6:35 AM 24.8 °F - 23.9 °F 96% 30.42 in 10.0 mi North - - N/A   Clear
7:15 AM 27.9 °F - 27.3 °F 98% 30.43 in 10.0 mi North - - N/A   Clear
7:35 AM 26.6 °F - 25.3 °F 95% 30.43 in 10.0 mi North - - N/A   Clear
7:55 AM 26.4 °F - 24.8 °F 94% 30.44 in 10.0 mi North - - N/A   Clear
8:15 AM 30.4 °F - 29.3 °F 96% 30.44 in 10.0 mi North - - N/A   Clear
8:35 AM 32.5 °F - 30.9 °F 94% 30.44 in 10.0 mi North - - N/A   Clear
8:55 AM 35.1 °F - 31.8 °F 88% 30.44 in 10.0 mi North - - N/A   Clear
9:15 AM 39.2 °F - 33.1 °F 79% 30.43 in 10.0 mi North - - N/A   Clear
9:35 AM 41.2 °F - 33.4 °F 74% 30.43 in 10.0 mi North - - N/A   Clear
9:55 AM 43.3 °F 37.2 °F 33.8 °F 69% 30.43 in 10.0 mi SSW 11.5 mph - N/A   Clear
10:15 AM 46.0 °F - 34.5 °F 64% 30.43 in 10.0 mi North - - N/A   Clear
10:35 AM 48.6 °F - 34.7 °F 59% 30.42 in 10.0 mi SSW 8.1 mph - N/A   Clear
10:55 AM 50.2 °F - 34.5 °F 55% 30.42 in 10.0 mi SW 12.7 mph 19.6 mph N/A   Clear
11:15 AM 50.7 °F - 34.3 °F 53% 30.41 in 10.0 mi SSW 11.5 mph 17.3 mph N/A   Clear
11:35 AM 51.3 °F - 34.3 °F 52% 30.40 in 10.0 mi SW 10.4 mph - N/A   Clear
11:55 AM 52.9 °F - 34.3 °F 49% 30.39 in 10.0 mi SSW 11.5 mph - N/A   Clear
12:15 PM 54.0 °F - 33.8 °F 46% 30.39 in 10.0 mi SW 9.2 mph - N/A   Clear
12:35 PM 54.7 °F - 34.2 °F 46% 30.38 in 10.0 mi SW 11.5 mph 17.3 mph N/A   Clear
12:55 PM 54.3 °F - 34.7 °F 48% 30.37 in 10.0 mi SW 10.4 mph - N/A   Mostly Cloudy
1:35 PM 54.0 °F - 34.9 °F 49% 30.37 in 10.0 mi SSW 10.4 mph - N/A   Overcast
1:55 PM 53.2 °F - 34.9 °F 50% 30.37 in 10.0 mi SSW 9.2 mph - N/A   Overcast
2:15 PM 53.2 °F - 35.1 °F 50% 30.37 in 10.0 mi South 9.2 mph - N/A   Overcast
2:55 PM 53.2 °F - 35.1 °F 50% 30.37 in 10.0 mi SW 3.5 mph - N/A   Overcast
3:15 PM 53.4 °F - 35.2 °F 50% 30.37 in 10.0 mi South 8.1 mph - N/A   Overcast
3:35 PM 52.7 °F - 35.1 °F 51% 30.37 in 10.0 mi South 6.9 mph - N/A   Overcast
3:55 PM 52.9 °F - 34.9 °F 50% 30.37 in 10.0 mi South 8.1 mph - N/A   Overcast
4:15 PM 52.9 °F - 34.5 °F 50% 30.38 in 10.0 mi South 6.9 mph - N/A   Mostly Cloudy
4:35 PM 52.9 °F - 35.1 °F 51% 30.37 in 10.0 mi SSE 4.6 mph - N/A   Overcast
4:55 PM 50.9 °F - 35.1 °F 55% 30.37 in 10.0 mi SSE 5.8 mph - N/A   Mostly Cloudy
5:15 PM 49.3 °F - 34.7 °F 57% 30.37 in 10.0 mi SSE 5.8 mph - N/A   Scattered Clouds
5:35 PM 46.9 °F - 34.3 °F 62% 30.38 in 10.0 mi SSE 4.6 mph - N/A   Clear
5:55 PM 45.7 °F 43.4 °F 34.5 °F 65% 30.37 in 10.0 mi SSE 4.6 mph - N/A   Mostly Cloudy
6:15 PM 43.9 °F 42.3 °F 34.2 °F 69% 30.38 in 10.0 mi South 3.5 mph - N/A   Scattered Clouds
6:35 PM 44.1 °F 42.5 °F 34.7 °F 70% 30.39 in 10.0 mi SSW 3.5 mph - N/A   Scattered Clouds
6:55 PM 42.3 °F - 34.7 °F 75% 30.40 in 10.0 mi Calm Calm - N/A   Scattered Clouds
7:15 PM 42.8 °F - 34.9 °F 74% 30.39 in 10.0 mi Calm Calm - N/A   Scattered Clouds
7:35 PM 41.5 °F - 34.3 °F 76% 30.39 in 10.0 mi Calm Calm - N/A   Clear
7:55 PM 39.2 °F - 33.8 °F 81% 30.39 in 10.0 mi Calm Calm - N/A   Clear
8:55 PM 37.4 °F - 33.3 °F 85% 30.39 in 10.0 mi Calm Calm - N/A   Clear
9:15 PM 35.4 °F - 32.0 °F 87% 30.40 in 10.0 mi Calm Calm - N/A   Clear
9:35 PM 35.4 °F - 32.2 °F 88% 30.40 in 10.0 mi Calm Calm - N/A   Clear
9:55 PM 34.5 °F - 31.5 °F 89% 30.40 in 10.0 mi Calm Calm - N/A   Clear
10:15 PM 33.4 °F - 31.5 °F 92% 30.40 in 10.0 mi Calm Calm - N/A   Clear
10:35 PM 33.1 °F - 31.5 °F 94% 30.40 in 10.0 mi Calm Calm - N/A   Clear
10:55 PM 33.3 °F - 32.0 °F 95% 30.40 in 10.0 mi Calm Calm - N/A   Clear
11:15 PM 32.9 °F - 32.0 °F 96% 30.40 in 10.0 mi Calm Calm - N/A   Clear
11:35 PM 32.2 °F - 32.0 °F 99% 30.39 in 10.0 mi Calm Calm - N/A   Clear
11:55 PM 31.6 °F - 31.1 °F 98% 30.39 in 10.0 mi Calm Calm - N/A   Clear